EZY50GT LPMA-LPPT

Flight info

Callsign EZY50GT
Flight time N/A
Altitude 38000
Route DEGUN DCT NARTA DCT ESUTI
Aircraft A20N/M-SDE2E3FGHIRWXY/LB1

Departure

Time N/A
Airport Cristiano Ronaldo International Airport (LPMA)

Arrival

Time 2026-04-27 12:37
Airport Lisbon Humberto Delgado Airport (LPPT)
Time Latitude Longitude Altitude Speed Heading
2026-04-27 11:14 32.96843 -16.18010 22902 ft 405 kts 43°
2026-04-27 11:15 32.98882 -16.15664 23518 ft 409 kts 43°
2026-04-27 11:15 33.00932 -16.13302 24053 ft 413 kts 43°
2026-04-27 11:15 33.03004 -16.10915 24562 ft 416 kts 43°
2026-04-27 11:15 33.05094 -16.08507 25063 ft 419 kts 43°
2026-04-27 11:16 33.07203 -16.06075 25550 ft 423 kts 43°
2026-04-27 11:16 33.09328 -16.03623 26034 ft 427 kts 43°
2026-04-27 11:16 33.11465 -16.01155 26502 ft 430 kts 43°
2026-04-27 11:16 33.13625 -15.98657 26970 ft 433 kts 43°
2026-04-27 11:17 33.15798 -15.96144 27420 ft 437 kts 43°
2026-04-27 11:17 33.17986 -15.93610 27857 ft 440 kts 43°
2026-04-27 11:17 33.20189 -15.91058 28290 ft 443 kts 44°
2026-04-27 11:17 33.22407 -15.88486 28702 ft 446 kts 44°
2026-04-27 11:18 33.24641 -15.85894 29094 ft 449 kts 44°
2026-04-27 11:18 33.26890 -15.83283 29473 ft 452 kts 44°
2026-04-27 11:18 33.29152 -15.80656 29871 ft 455 kts 44°
2026-04-27 11:18 33.31399 -15.78044 30238 ft 458 kts 44°
2026-04-27 11:19 33.33693 -15.75375 30575 ft 460 kts 44°
2026-04-27 11:19 33.35988 -15.72702 30922 ft 462 kts 44°
2026-04-27 11:19 33.38299 -15.70008 31278 ft 464 kts 44°
2026-04-27 11:19 33.40613 -15.67309 31722 ft 464 kts 44°
2026-04-27 11:20 33.42922 -15.64622 32193 ft 462 kts 44°
2026-04-27 11:20 33.45261 -15.61970 32639 ft 462 kts 43°
2026-04-27 11:20 33.47607 -15.59347 33081 ft 461 kts 43°
2026-04-27 11:20 33.49948 -15.56733 33539 ft 459 kts 43°
2026-04-27 11:21 33.52285 -15.54117 33982 ft 458 kts 43°
2026-04-27 11:21 33.54608 -15.51508 34355 ft 457 kts 43°
2026-04-27 11:21 33.56928 -15.48897 34678 ft 457 kts 43°
2026-04-27 11:21 33.59247 -15.46282 34963 ft 458 kts 43°
2026-04-27 11:22 33.61566 -15.43664 35257 ft 458 kts 43°
2026-04-27 11:22 33.63860 -15.41072 35540 ft 458 kts 43°
2026-04-27 11:22 33.66180 -15.38448 35815 ft 458 kts 43°
2026-04-27 11:22 33.68504 -15.35817 36112 ft 458 kts 43°
2026-04-27 11:23 33.70829 -15.33183 36383 ft 458 kts 43°
2026-04-27 11:23 33.73149 -15.30552 36643 ft 459 kts 43°
2026-04-27 11:23 33.75468 -15.27921 36924 ft 458 kts 43°
2026-04-27 11:23 33.77781 -15.25294 37174 ft 458 kts 43°
2026-04-27 11:24 33.80098 -15.22661 37428 ft 458 kts 43°
2026-04-27 11:24 33.82420 -15.20020 37677 ft 458 kts 43°
2026-04-27 11:24 33.84735 -15.17385 37915 ft 458 kts 43°
2026-04-27 11:24 33.87057 -15.14740 38081 ft 459 kts 43°
2026-04-27 11:25 33.91654 -15.09497 38107 ft 457 kts 43°
2026-04-27 11:25 33.96267 -15.04228 38108 ft 457 kts 43°
2026-04-27 11:26 34.00875 -14.98957 38107 ft 457 kts 43°
2026-04-27 11:26 34.05492 -14.93665 38108 ft 456 kts 43°
2026-04-27 11:27 34.10091 -14.88387 38102 ft 456 kts 43°
2026-04-27 11:27 34.14687 -14.83104 38104 ft 457 kts 43°
2026-04-27 11:28 34.19287 -14.77809 38101 ft 456 kts 43°
2026-04-27 11:28 34.23850 -14.72545 38097 ft 457 kts 43°
2026-04-27 11:29 34.28448 -14.67236 38100 ft 456 kts 43°
2026-04-27 11:29 34.33035 -14.61930 38100 ft 457 kts 43°
2026-04-27 11:30 34.37635 -14.56601 38095 ft 457 kts 43°
2026-04-27 11:30 34.42234 -14.51264 38094 ft 458 kts 43°
2026-04-27 11:31 34.46831 -14.45920 38092 ft 458 kts 43°
2026-04-27 11:31 34.51421 -14.40577 38092 ft 457 kts 43°
2026-04-27 11:32 34.56025 -14.35209 38093 ft 460 kts 43°
2026-04-27 11:32 34.60601 -14.29863 38088 ft 458 kts 43°
2026-04-27 11:33 34.65189 -14.24496 38087 ft 459 kts 43°
2026-04-27 11:33 34.69782 -14.19115 38091 ft 457 kts 44°
2026-04-27 11:34 34.74373 -14.13727 38090 ft 462 kts 44°
2026-04-27 11:34 34.78987 -14.08302 38086 ft 459 kts 44°
2026-04-27 11:35 34.83589 -14.02883 38086 ft 461 kts 44°
2026-04-27 11:35 34.88197 -13.97449 38083 ft 460 kts 44°
2026-04-27 11:36 34.92763 -13.92055 38083 ft 460 kts 44°
2026-04-27 11:36 34.97368 -13.86605 38083 ft 461 kts 44°
2026-04-27 11:37 35.01969 -13.81152 38079 ft 461 kts 44°
2026-04-27 11:37 35.06572 -13.75687 38078 ft 461 kts 44°
2026-04-27 11:38 35.11175 -13.70213 38079 ft 462 kts 44°
2026-04-27 11:38 35.15774 -13.64735 38076 ft 461 kts 44°
2026-04-27 11:39 35.20373 -13.59247 38074 ft 462 kts 44°
2026-04-27 11:39 35.24964 -13.53761 38075 ft 460 kts 44°
2026-04-27 11:40 35.29515 -13.48311 38072 ft 461 kts 44°
2026-04-27 11:40 35.34106 -13.42806 38067 ft 463 kts 44°
2026-04-27 11:41 35.38709 -13.37277 38071 ft 463 kts 44°
2026-04-27 11:41 35.43298 -13.31756 38073 ft 463 kts 44°
2026-04-27 11:42 35.47892 -13.26218 38066 ft 461 kts 44°
2026-04-27 11:42 35.52473 -13.20688 38103 ft 463 kts 45°
2026-04-27 11:43 35.57060 -13.15142 38063 ft 461 kts 45°
2026-04-27 11:43 35.61627 -13.09608 38071 ft 461 kts 45°
2026-04-27 11:44 35.66171 -13.04094 38060 ft 461 kts 45°
2026-04-27 11:44 35.70738 -12.98543 38056 ft 462 kts 45°
2026-04-27 11:45 35.74544 -12.93909 38058 ft 462 kts 45°
2026-04-27 11:45 35.79113 -12.88339 38056 ft 461 kts 45°
2026-04-27 11:46 35.84423 -12.81852 38063 ft 463 kts 45°
2026-04-27 11:46 35.88255 -12.77162 38062 ft 462 kts 45°
2026-04-27 11:47 35.92817 -12.71573 38063 ft 462 kts 45°
2026-04-27 11:47 35.97380 -12.65971 38054 ft 462 kts 45°
2026-04-27 11:48 36.01913 -12.60402 38052 ft 462 kts 45°
2026-04-27 11:48 36.06467 -12.54805 38051 ft 461 kts 45°
2026-04-27 11:49 36.11183 -12.49384 38067 ft 463 kts 43°
2026-04-27 11:49 36.15939 -12.44013 38054 ft 463 kts 43°
2026-04-27 11:50 36.20668 -12.38618 38049 ft 463 kts 43°
2026-04-27 11:50 36.25386 -12.33206 38046 ft 462 kts 43°
2026-04-27 11:51 36.30103 -12.27782 38056 ft 463 kts 43°
2026-04-27 11:52 36.37177 -12.19632 38054 ft 462 kts 44°
2026-04-27 11:52 36.41883 -12.14197 38054 ft 462 kts 44°
2026-04-27 11:53 36.46557 -12.08789 38038 ft 462 kts 44°
2026-04-27 11:53 36.51257 -12.03344 38043 ft 461 kts 44°
2026-04-27 11:54 36.55953 -11.97893 38039 ft 461 kts 44°
2026-04-27 11:54 36.60649 -11.92433 38047 ft 461 kts 44°
2026-04-27 11:55 36.65339 -11.86972 38041 ft 461 kts 44°
2026-04-27 11:55 36.69992 -11.81542 38050 ft 461 kts 44°
2026-04-27 11:56 36.74674 -11.76069 38046 ft 461 kts 44°
2026-04-27 11:56 36.79352 -11.70592 38047 ft 461 kts 44°
2026-04-27 11:57 36.84026 -11.65110 38044 ft 461 kts 44°
2026-04-27 11:57 36.88693 -11.59626 38042 ft 460 kts 44°
2026-04-27 11:58 36.93361 -11.54132 38046 ft 460 kts 44°
2026-04-27 11:58 36.98021 -11.48637 38043 ft 460 kts 44°
2026-04-27 11:59 37.02679 -11.43135 38037 ft 460 kts 44°
2026-04-27 11:59 37.07332 -11.37629 38045 ft 460 kts 44°
2026-04-27 12:00 37.11981 -11.32118 38040 ft 460 kts 44°
2026-04-27 12:00 37.16596 -11.26637 38048 ft 460 kts 44°
2026-04-27 12:01 37.21243 -11.21109 38039 ft 460 kts 44°
2026-04-27 12:01 37.25867 -11.15599 37977 ft 452 kts 44°
2026-04-27 12:01 37.28126 -11.12904 37735 ft 444 kts 44°
2026-04-27 12:02 37.30338 -11.10263 37471 ft 434 kts 44°
2026-04-27 12:02 37.32505 -11.07672 37191 ft 424 kts 45°
2026-04-27 12:02 37.34617 -11.05146 36919 ft 415 kts 45°
2026-04-27 12:02 37.36686 -11.02670 36650 ft 406 kts 45°
2026-04-27 12:03 37.38682 -11.00278 36392 ft 398 kts 45°
2026-04-27 12:03 37.40673 -10.97890 36133 ft 394 kts 45°
2026-04-27 12:03 37.42661 -10.95503 35880 ft 396 kts 45°
2026-04-27 12:03 37.44657 -10.93104 35630 ft 397 kts 45°
2026-04-27 12:04 37.46647 -10.90713 35380 ft 394 kts 45°
2026-04-27 12:04 37.48621 -10.88340 35141 ft 391 kts 45°
2026-04-27 12:04 37.50584 -10.85977 34891 ft 388 kts 45°
2026-04-27 12:04 37.52538 -10.83623 34577 ft 388 kts 46°
2026-04-27 12:05 37.54490 -10.81269 34144 ft 388 kts 46°
2026-04-27 12:05 37.56410 -10.78953 33681 ft 385 kts 46°
2026-04-27 12:05 37.58335 -10.76629 33238 ft 381 kts 46°
2026-04-27 12:05 37.60245 -10.74321 32801 ft 378 kts 46°
2026-04-27 12:06 37.62132 -10.72038 32365 ft 374 kts 46°
2026-04-27 12:06 37.63999 -10.69778 31931 ft 371 kts 46°
2026-04-27 12:06 37.65859 -10.67526 31497 ft 368 kts 46°
2026-04-27 12:06 37.67703 -10.65290 31068 ft 366 kts 45°
2026-04-27 12:07 37.69535 -10.63068 30639 ft 364 kts 45°
2026-04-27 12:07 37.71355 -10.60857 30208 ft 362 kts 45°
2026-04-27 12:07 37.73166 -10.58656 29739 ft 360 kts 45°
2026-04-27 12:07 37.74956 -10.56480 29321 ft 356 kts 45°
2026-04-27 12:08 37.76731 -10.54320 28895 ft 352 kts 45°
2026-04-27 12:08 37.78489 -10.52179 28476 ft 349 kts 45°
2026-04-27 12:08 37.80232 -10.50057 28055 ft 347 kts 45°
2026-04-27 12:08 37.81961 -10.47949 27639 ft 344 kts 45°
2026-04-27 12:09 37.83678 -10.45856 27210 ft 342 kts 45°
2026-04-27 12:09 37.85383 -10.43776 26818 ft 340 kts 45°
2026-04-27 12:09 37.87019 -10.41636 26407 ft 337 kts 48°
2026-04-27 12:09 37.88618 -10.39475 26007 ft 335 kts 47°
2026-04-27 12:10 37.90199 -10.37364 25610 ft 334 kts 47°
2026-04-27 12:10 37.91797 -10.35234 25208 ft 333 kts 47°
2026-04-27 12:10 37.93389 -10.33107 24803 ft 332 kts 47°
2026-04-27 12:10 37.94976 -10.30980 24401 ft 331 kts 47°
2026-04-27 12:11 37.96552 -10.28864 24014 ft 330 kts 47°
2026-04-27 12:11 37.98130 -10.26743 23614 ft 330 kts 47°
2026-04-27 12:11 37.99701 -10.24628 23182 ft 328 kts 47°
2026-04-27 12:11 38.01260 -10.22531 22791 ft 325 kts 47°
2026-04-27 12:12 38.02806 -10.20450 22405 ft 322 kts 47°
2026-04-27 12:12 38.04337 -10.18387 22024 ft 320 kts 47°
2026-04-27 12:12 38.05859 -10.16334 21641 ft 317 kts 47°
2026-04-27 12:12 38.07366 -10.14301 21266 ft 315 kts 47°
2026-04-27 12:13 38.08866 -10.12276 20896 ft 313 kts 47°
2026-04-27 12:13 38.10348 -10.10272 20523 ft 311 kts 47°
2026-04-27 12:13 38.11825 -10.08276 20152 ft 309 kts 47°
2026-04-27 12:13 38.13294 -10.06289 19789 ft 308 kts 47°
2026-04-27 12:14 38.14755 -10.04312 19415 ft 306 kts 47°
2026-04-27 12:14 38.16210 -10.02342 19054 ft 305 kts 48°
2026-04-27 12:14 38.17752 -10.00498 18684 ft 304 kts 37°
2026-04-27 12:14 38.19543 -9.99141 18319 ft 304 kts 25°
2026-04-27 12:15 38.21502 -9.98131 17916 ft 303 kts 23°
2026-04-27 12:15 38.23446 -9.97125 17548 ft 300 kts 23°
2026-04-27 12:15 38.25371 -9.96116 17182 ft 298 kts 23°
2026-04-27 12:15 38.27280 -9.95110 16800 ft 296 kts 23°
2026-04-27 12:16 38.29175 -9.94111 16450 ft 294 kts 24°
2026-04-27 12:16 38.31058 -9.93119 16092 ft 292 kts 24°
2026-04-27 12:16 38.32933 -9.92131 15729 ft 290 kts 24°
2026-04-27 12:16 38.34794 -9.91152 15369 ft 289 kts 24°
2026-04-27 12:17 38.36650 -9.90174 15012 ft 288 kts 24°
2026-04-27 12:17 38.38496 -9.89202 14658 ft 287 kts 24°
2026-04-27 12:17 38.40336 -9.88232 14293 ft 286 kts 24°
2026-04-27 12:17 38.42170 -9.87264 13936 ft 285 kts 24°
2026-04-27 12:18 38.44000 -9.86297 13557 ft 284 kts 24°
2026-04-27 12:18 38.45820 -9.85336 13196 ft 281 kts 24°
2026-04-27 12:18 38.47622 -9.84384 12854 ft 279 kts 24°
2026-04-27 12:18 38.49406 -9.83441 12507 ft 277 kts 24°
2026-04-27 12:19 38.51176 -9.82505 12157 ft 274 kts 24°
2026-04-27 12:19 38.52905 -9.81507 11806 ft 270 kts 35°
2026-04-27 12:19 38.54187 -9.79829 11473 ft 263 kts 62°
2026-04-27 12:19 38.54796 -9.77657 11153 ft 259 kts 76°
2026-04-27 12:20 38.55239 -9.75463 10817 ft 257 kts 76°
2026-04-27 12:20 38.55671 -9.73261 10505 ft 255 kts 76°
2026-04-27 12:20 38.56110 -9.71068 10177 ft 254 kts 76°
2026-04-27 12:20 38.56556 -9.68892 9848 ft 252 kts 76°
2026-04-27 12:21 38.57005 -9.66736 9515 ft 250 kts 75°
2026-04-27 12:21 38.57451 -9.64606 9202 ft 247 kts 75°
2026-04-27 12:21 38.57894 -9.62499 8891 ft 244 kts 75°
2026-04-27 12:21 38.58332 -9.60410 8583 ft 242 kts 75°
2026-04-27 12:22 38.58594 -9.58310 8274 ft 239 kts 94°
2026-04-27 12:22 38.58074 -9.56338 8103 ft 236 kts 123°
2026-04-27 12:22 38.56827 -9.54889 8025 ft 249 kts 152°
2026-04-27 12:22 38.55169 -9.54286 8003 ft 248 kts 167°
2026-04-27 12:23 38.53463 -9.53873 8008 ft 250 kts 167°
2026-04-27 12:23 38.51755 -9.53463 8008 ft 249 kts 167°
2026-04-27 12:23 38.50072 -9.52936 8009 ft 248 kts 158°
2026-04-27 12:23 38.48597 -9.51997 8011 ft 246 kts 144°
2026-04-27 12:24 38.47181 -9.50765 8008 ft 246 kts 144°
2026-04-27 12:24 38.45761 -9.49544 8010 ft 246 kts 144°
2026-04-27 12:24 38.44337 -9.48331 8012 ft 246 kts 144°
2026-04-27 12:24 38.42934 -9.47140 8012 ft 245 kts 144°
2026-04-27 12:25 38.41622 -9.45764 8010 ft 244 kts 131°
2026-04-27 12:25 38.40594 -9.44054 8012 ft 243 kts 121°
2026-04-27 12:25 38.39669 -9.42252 8011 ft 243 kts 122°
2026-04-27 12:25 38.38733 -9.40459 8012 ft 243 kts 122°
2026-04-27 12:26 38.37791 -9.38671 8012 ft 243 kts 122°
2026-04-27 12:26 38.36854 -9.36879 8012 ft 243 kts 119°
2026-04-27 12:26 38.36152 -9.34937 8013 ft 241 kts 106°
2026-04-27 12:26 38.35784 -9.32856 8012 ft 241 kts 99°
2026-04-27 12:27 38.35469 -9.30759 8011 ft 241 kts 100°
2026-04-27 12:27 38.35142 -9.28675 8013 ft 241 kts 100°
2026-04-27 12:27 38.34809 -9.26581 8010 ft 240 kts 101°
2026-04-27 12:27 38.34508 -9.24492 8010 ft 240 kts 95°
2026-04-27 12:28 38.34522 -9.22372 8012 ft 240 kts 82°
2026-04-27 12:28 38.34841 -9.20285 8010 ft 240 kts 78°
2026-04-27 12:28 38.35169 -9.18226 8011 ft 240 kts 78°
2026-04-27 12:28 38.35767 -9.16233 8010 ft 241 kts 54°
2026-04-27 12:29 38.37029 -9.14890 8008 ft 245 kts 25°
2026-04-27 12:29 38.38709 -9.14511 7912 ft 251 kts 356°
2026-04-27 12:29 38.40365 -9.15228 7593 ft 258 kts 329°
2026-04-27 12:29 38.41617 -9.16375 7209 ft 263 kts 323°
2026-04-27 12:30 38.43032 -9.17848 6911 ft 262 kts 322°
2026-04-27 12:30 38.44449 -9.19332 6594 ft 264 kts 323°
2026-04-27 12:30 38.45881 -9.20786 6286 ft 263 kts 323°
2026-04-27 12:30 38.47316 -9.22207 5989 ft 260 kts 324°
2026-04-27 12:31 38.48748 -9.23601 5686 ft 257 kts 324°
2026-04-27 12:31 38.50170 -9.24976 5392 ft 255 kts 324°
2026-04-27 12:31 38.51574 -9.26333 5102 ft 252 kts 324°
2026-04-27 12:31 38.52966 -9.27680 4809 ft 251 kts 324°
2026-04-27 12:32 38.54410 -9.28898 4515 ft 246 kts 340°
2026-04-27 12:32 38.56065 -9.29183 4237 ft 239 kts 11°
2026-04-27 12:32 38.57528 -9.28362 4073 ft 226 kts 43°
2026-04-27 12:32 38.58369 -9.26759 4000 ft 212 kts 71°
2026-04-27 12:33 38.58923 -9.25036 3982 ft 213 kts 59°
2026-04-27 12:33 38.59930 -9.23646 3845 ft 215 kts 38°
2026-04-27 12:33 38.60768 -9.22972 3653 ft 216 kts 30°
2026-04-27 12:33 38.62614 -9.21905 3307 ft 221 kts 23°
2026-04-27 12:34 38.63571 -9.21402 3083 ft 227 kts 24°
2026-04-27 12:34 38.65042 -9.20613 2761 ft 230 kts 24°
2026-04-27 12:34 38.66961 -9.19584 2369 ft 217 kts 24°
2026-04-27 12:34 38.68290 -9.18867 2174 ft 199 kts 24°
2026-04-27 12:35 38.69174 -9.18394 1970 ft 204 kts 23°
2026-04-27 12:35 38.70431 -9.17722 1662 ft 187 kts 23°
2026-04-27 12:35 38.71580 -9.17107 1416 ft 172 kts 22°
2026-04-27 12:35 38.72624 -9.16546 1216 ft 153 kts 22°
2026-04-27 12:36 38.73554 -9.16048 1024 ft 138 kts 22°
2026-04-27 12:36 38.74397 -9.15596 845 ft 123 kts 24°
2026-04-27 12:36 38.75136 -9.15201 692 ft 115 kts 24°
2026-04-27 12:36 38.75933 -9.14772 556 ft 129 kts 23°
2026-04-27 12:37 38.76749 -9.14344 352 ft 123 kts 24°
2026-04-27 12:37 38.77368 -9.13998 363 ft 58 kts 23°
2026-04-27 12:37 38.77817 -9.13753 364 ft 87 kts 22°
2026-04-27 12:37 38.78236 -9.13516 365 ft 49 kts 34°
2026-04-27 12:38 38.78379 -9.13309 361 ft 0 kts 100°
2026-04-27 12:40 38.78373 -9.13296 363 ft 5 kts 116°
2026-04-27 12:40 38.78327 -9.13268 362 ft 11 kts 179°
2026-04-27 12:40 38.78243 -9.13305 358 ft 15 kts 204°
2026-04-27 12:40 38.78136 -9.13364 362 ft 19 kts 203°